ONEWEB-0393 (50473 NORAD) Tracking and Keplerian Element Data

This shows tracking and keplerian element data for the satellite.

Feedback or suggestion? Click here.




ElementValue
Catalog50473
NameONEWEB-0393
Epoch Orbit2293
Epoch Day140.91667824
Epoch Year2022
RAAN305.2386
Inclination87.3162
Eccentricity0.0005731
Argument of Perigee110.6472
Mean Anonmoly357.0374
Mean Motion14.64880597
Decay Rate-0.01080815
L11 50473U 21132E 22140.91667824 -.01080815 00000+0 -21761+0 0 9990
L22 50473 87.3162 305.2386 0005731 110.6472 357.0374 14.64880597 22939

Live tracking and technical data element details for ONEWEB-0393 (NORAD 50473). ONEWEB-0393 can be tracked NOW for your location showing map with azimuth and elevation plus other details from your city location.

Track the satellite on the map from your city or location and see movement details for azimuth, elevation, latitude, longitude, range, height, and movement on the map or in text.







IsCatalogInMostPopularTable: catalog: 50473, numindb: 21
Update: records affected: 1



GetName: 50473 ONEWEB-0393

Hit Count: updated at: Sun, 22 May 2022 05:10:50 GMT